Temperature
6 6 6 6 6 6 5 5 5 5 5 5 5 5 5 5 5 6 6 6 6 6 6 6 6 6 6 6 6 6 6 6 6 7 7 7 7 7 7 7 7 7 7
6 5 5 5 5 5 5 5 5 5 5 5 5 5 5 5 5 5 5 5 5 5 6 6 6 6 6 6 6 6 6 6 6 6 6 7 7 7 7 7 7 7 7
5 5 5 5 5 5 4 4 4 4 5 5 5 4 5 5 5 5 5 5 5 5 5 5 6 6 6 6 6 6 6 6 6 6 6 6 6 6 6 6 6 6 6
5 5 4 4 4 4 4 4 4 4 4 4 4 4 4 4 4 4 5 5 5 5 5 5 5 5 6 6 6 6 6 6 6 6 6 6 6 6 6 6 6 6 6
4 4 4 4 4 4 4 4 4 4 4 4 4 4 4 4 4 4 4 4 4 5 5 5 5 5 5 6 5 5 6 6 5 5 5 5 5 5 5 5 5 5 5
4 3 3 3 3 3 3 3 3 3 3 3 4 3 3 3 4 4 4 4 4 4 5 5 5 5 5 5 5 5 5 5 5 5 5 5 5 5 5 5 5 5 4
3 3 3 3 3 3 3 3 3 3 3 3 3 3 3 3 3 4 4 4 4 4 4 4 4 5 5 5 5 5 5 5 5 5 5 5 5 5 5 4 4 4 4
3 2 2 2 2 2 3 3 3 3 3 2 3 3 2 3 3 3 3 3 4 4 4 4 4 4 4 4 4 4 5 5 5 5 5 4 4 4 4 4 4 4 4
2 2 2 2 2 2 2 3 3 2 2 2 2 2 2 2 3 3 3 3 3 3 3 4 4 4 4 4 4 4 4 4 4 4 4 4 4 4 4 4 3 3 3
2 2 2 2 2 2 2 2 2 2 2 2 2 2 2 2 2 3 3 2 3 3 3 3 3 4 4 4 4 4 4 4 4 4 3 3 3 3 3 3 3 3 3
1 1 1 1 1 1 1 1 1 1 1 1 1 2 2 2 2 2 2 2 2 2 2 3 3 3 3 3 3 3 3 3 3 3 3 3 3 3 3 3 3 3 3
1 1 1 1 1 1 1 1 1 1 1 1 1 1 1 1 2 2 2 2 2 2 2 2 3 3 3 3 3 3 3 3 3 2 2 2 2 2 2 2 2 2 2
0 0 1 1 1 1 1 1 1 0 -0 0 0 0 1 1 1 1 1 2 2 2 2 2 2 3 3 3 3 3 3 2 2 2 2 2 2 2 2 2 2 2 1
-0 0 0 0 0 0 0 0 0 -0 -0 -0 -0 -0 0 1 1 1 1 1 1 2 2 2 2 2 2 2 2 2 2 2 2 1 1 1 1 1 1 1 1 1 1
-0 -0 -0 -0 -0 -0 -0 -1 -1 -0 -1 -0 -0 -0 0 0 0 1 1 1 1 1 1 2 2 2 2 2 1 1 1 1 1 1 1 1 0 0 0 0 0 0 0
-1 -1 -1 -1 -1 -1 -1 -1 -1 -1 -1 -0 -0 -0 -0 -0 -0 0 0 1 1 1 1 1 1 1 1 1 1 1 1 1 1 1 1 0 0 0 -0 -0 -0 -0 -0
-2 -2 -1 -1 -1 -1 -1 -1 -1 -1 -0 -0 -0 -0 -0 -0 -0 0 0 0 1 1 1 1 1 1 1 1 1 1 1 0 0 0 0 0 0 -0 -0 -1 -1 -1 -1
-2 -2 -2 -2 -2 -2 -2 -2 -2 -2 -1 -1 -1 -1 -1 -0 -0 -0 0 0 0 0 1 0 0 0 0 0 0 0 0 0 0 0 0 0 -0 -0 -1 -1 -1 -1 -2
-2 -2 -2 -2 -2 -2 -2 -2 -2 -2 -2 -2 -1 -1 -1 -1 -1 -0 -0 0 -0 -0 -0 -0 -0 0 0 0 0 -0 -0 -0 -0 -0 -0 -0 -0 -1 -1 -1 -2 -2 -2
-2 -2 -2 -3 -2 -2 -2 -2 -2 -2 -2 -2 -2 -2 -1 -1 -1 -1 -1 -1 -0 -0 -0 -0 -0 -0 -0 -0 -0 -0 -0 -1 -1 -1 -1 -1 -1 -1 -1 -2 -2 -2 -2
-3 -3 -3 -3 -3 -3 -2 -2 -3 -3 -3 -2 -2 -2 -2 -2 -2 -1 -1 -1 -1 -1 -1 -1 -1 -1 -1 -1 -1 -1 -1 -1 -1 -1 -1 -1 -1 -2 -2 -2 -2 -2 -3
-3 -3 -3 -3 -3 -3 -3 -3 -3 -3 -3 -3 -3 -2 -2 -2 -2 -2 -1 -1 -1 -1 -1 -1 -1 -1 -1 -1 -1 -1 -1 -1 -1 -1 -1 -2 -2 -2 -2 -3 -3 -3 -3
-4 -4 -4 -4 -3 -3 -3 -4 -4 -4 -3 -3 -3 -3 -3 -3 -2 -2 -2 -2 -2 -1 -1 -1 -1 -1 -1 -1 -1 -1 -1 -1 -1 -2 -2 -2 -2 -2 -3 -3 -3 -3 -3
-4 -4 -4 -4 -4 -4 -4 -4 -4 -4 -4 -4 -4 -4 -3 -3 -3 -2 -2 -2 -2 -2 -2 -2 -1 -1 -1 -1 -1 -2 -2 -2 -2 -2 -2 -2 -2 -3 -3 -3 -3 -3 -3
-5 -5 -5 -5 -5 -5 -5 -5 -5 -5 -5 -4 -4 -4 -4 -3 -3 -3 -2 -2 -2 -2 -2 -2 -2 -2 -2 -2 -2 -2 -2 -2 -2 -2 -2 -2 -3 -3 -3 -3 -3 -4 -4
-5 -5 -5 -5 -5 -5 -5 -5 -5 -5 -5 -5 -5 -4 -4 -3 -3 -3 -3 -3 -2 -2 -2 -2 -2 -2 -2 -2 -2 -2 -2 -2 -2 -2 -3 -3 -3 -3 -3 -4 -4 -4 -4
Wind_Speed
5 5 5 5 6 6 6 7 7 7 7 7 7 8 8 9 9 8 8 8 9 9 8 9 9 8 7 7 6 6 6 6 8 7 4 4 5 6 5 5 6 6 7
4 4 5 5 5 5 6 6 6 6 6 6 7 7 8 8 8 8 9 8 9 9 9 9 10 8 9 7 7 7 7 6 7 8 5 4 5 5 5 5 4 4 4
4 4 5 5 5 6 6 6 6 6 6 6 6 7 8 7 7 8 8 8 9 9 9 10 9 8 9 7 7 7 6 6 5 6 6 4 3 3 2 2 2 1 2
4 4 5 5 5 6 5 5 5 5 5 5 6 7 7 6 7 7 7 7 8 8 9 9 9 9 10 8 7 7 6 6 5 5 5 4 3 2 2 2 1 1 1
5 5 6 6 5 5 5 5 5 5 6 5 5 6 6 5 6 6 7 7 7 7 7 8 9 9 10 8 7 6 6 6 5 5 5 4 3 2 3 2 2 1 1
5 5 6 5 5 5 5 5 5 5 5 5 5 6 6 5 7 7 6 6 6 6 6 6 7 7 9 9 9 9 9 8 7 6 5 5 5 4 3 2 2 1 2
5 5 6 5 5 5 5 5 5 5 5 6 6 5 5 6 7 7 6 4 4 5 5 5 5 6 7 6 6 7 8 10 10 7 6 6 5 5 4 4 3 2 2
5 6 6 5 5 5 5 6 6 5 5 6 5 5 5 6 6 6 4 3 3 3 3 4 4 4 5 5 4 4 4 5 6 6 6 5 5 5 6 5 4 2 1
6 6 6 5 5 6 6 6 6 5 5 5 5 5 5 5 6 5 4 2 2 3 3 4 4 4 5 4 4 3 2 2 2 4 4 4 4 5 5 4 3 3 1
7 7 6 5 5 5 6 6 5 4 4 4 4 4 4 5 5 4 3 2 2 2 2 2 4 4 4 4 4 4 3 2 3 3 3 3 2 3 4 4 5 4 2
6 6 6 5 5 5 5 4 4 3 3 3 4 4 4 4 5 4 4 2 2 2 2 2 2 3 4 3 3 3 4 3 4 4 3 2 2 2 2 2 1 3 3
6 6 5 5 5 4 3 3 3 2 2 2 2 3 3 3 3 3 3 3 2 2 2 2 2 2 3 3 2 3 4 4 3 3 3 2 2 2 3 3 4 4 2
5 6 5 5 4 3 3 3 2 1 1 2 2 2 3 2 2 2 2 2 2 1 2 2 2 1 1 2 3 4 4 3 4 4 3 2 2 3 3 4 5 6 6
5 6 5 4 4 3 2 2 1 1 1 1 2 2 2 2 2 1 1 1 1 0 0 1 1 2 2 2 2 2 2 3 4 4 4 3 3 3 3 3 3 3 4
5 4 4 3 2 2 2 2 2 2 2 2 2 2 2 2 3 4 2 1 1 1 0 1 2 2 1 2 2 2 3 4 5 5 5 4 4 4 3 2 2 3 3
4 4 3 2 2 1 2 3 4 3 5 5 4 3 2 3 4 4 4 2 2 0 1 1 2 2 2 2 3 3 3 4 4 4 4 4 4 4 3 3 3 3 4
4 4 3 2 2 1 1 1 3 5 6 5 4 4 3 3 2 2 2 1 2 2 2 2 2 2 2 2 3 3 3 3 4 4 5 4 4 4 4 3 3 3 3
4 4 3 2 2 1 1 1 1 2 3 4 5 5 5 4 3 3 3 3 3 3 2 2 2 2 2 3 3 3 4 4 4 4 4 4 4 4 3 3 3 4 3
3 2 2 2 1 1 1 1 1 1 2 2 3 4 5 4 5 5 4 3 2 2 2 2 2 2 2 3 3 3 4 4 4 4 4 4 3 4 3 3 3 4 4
3 5 4 2 1 1 1 1 1 1 2 2 2 3 3 3 3 3 3 2 2 2 2 2 2 2 2 3 3 3 4 4 4 4 4 3 3 3 4 4 4 4 3
2 3 4 2 1 1 1 1 1 1 2 2 2 3 4 2 2 2 2 2 1 1 2 2 2 2 2 3 3 4 4 4 4 4 4 4 4 4 4 4 4 4 4
2 2 2 2 2 2 1 1 1 1 2 2 3 3 5 3 2 2 2 2 1 1 2 2 2 2 2 2 3 3 4 4 4 4 4 4 4 4 4 4 4 4 5
2 2 2 2 2 2 3 2 2 2 2 2 2 2 3 2 2 2 2 1 2 2 2 2 2 2 3 2 2 3 4 4 4 5 5 5 4 4 4 5 5 5 5
2 2 2 2 2 2 2 2 2 2 2 2 2 2 2 2 2 2 2 2 2 2 2 3 3 3 3 3 3 3 4 4 4 5 6 6 5 4 4 4 5 5 5
2 2 2 2 2 2 2 2 2 2 2 2 2 2 2 2 2 2 2 2 3 3 3 3 3 3 4 4 4 4 7 7 6 6 6 6 6 5 5 5 5 5 5
2 2 2 1 1 1 1 1 2 2 2 2 2 2 2 2 2 2 2 2 3 3 3 3 4 4 4 4 6 7 8 8 8 8 6 6 6 6 5 5 6 5 5
Wind_Direction
272 277 284 284 281 275 265 259 257 259 254 252 249 250 248 243 232 227 230 231 232 237 237 228 229 227 228 225 221 224 228 226 246 261 253 247 237 245 256 256 254 251 251
267 279 283 284 286 282 277 272 262 260 258 254 253 255 254 248 235 229 231 233 233 237 238 230 231 229 227 222 220 225 227 224 232 251 255 247 245 228 237 245 256 259 256
285 285 289 287 289 286 279 275 269 264 268 265 258 259 256 248 243 237 233 234 234 238 238 230 230 226 230 224 219 224 228 229 225 235 250 250 250 231 241 252 247 261 289
298 292 287 286 284 284 282 279 273 267 270 274 269 268 263 253 250 244 237 238 238 242 238 230 230 226 227 220 221 222 222 222 221 225 240 243 243 236 207 231 267 291 284
301 297 293 294 291 289 288 285 283 278 278 274 278 281 275 263 257 252 239 237 237 240 240 233 232 232 228 223 222 215 211 215 215 223 233 234 231 215 218 210 224 270 314
300 299 303 303 305 301 294 287 287 286 284 281 277 275 275 272 275 279 259 237 233 238 241 236 235 229 229 231 230 227 217 210 213 218 227 219 225 216 211 202 193 200 252
305 308 311 313 312 306 303 299 288 282 281 282 273 271 273 273 278 282 283 244 229 233 237 237 236 230 223 216 226 232 231 228 222 214 213 215 215 208 196 203 204 204 227
310 308 309 311 307 305 304 299 291 283 279 278 269 266 267 271 277 280 285 264 239 234 238 228 224 221 211 206 207 222 232 232 223 214 204 207 207 198 192 193 178 147 94
308 303 303 302 303 305 302 295 290 285 282 279 268 262 263 270 275 275 278 247 237 247 243 233 217 210 208 202 191 201 235 238 196 175 175 184 182 176 163 146 146 142 186
299 297 298 300 300 296 293 293 292 285 280 285 282 268 260 266 271 266 265 231 229 240 246 233 221 208 208 203 193 192 211 210 148 123 119 119 142 154 159 174 175 173 171
297 300 301 302 299 293 293 296 298 298 298 295 296 291 277 268 268 260 260 238 222 221 232 239 235 222 217 223 218 195 197 175 150 140 128 113 98 95 91 85 123 167 175
300 301 302 303 301 305 301 301 301 296 296 294 302 308 301 291 277 264 261 268 260 210 221 236 229 220 222 225 201 171 158 148 146 136 126 117 107 90 76 68 64 60 66
308 304 301 303 300 299 295 295 300 297 286 298 310 310 316 320 309 289 291 291 295 260 221 223 224 191 198 177 150 143 144 144 139 136 132 117 105 112 103 86 72 69 59
307 305 303 301 303 318 323 312 303 286 279 289 289 290 303 314 322 320 313 299 273 270 209 186 172 141 127 113 103 118 132 141 135 134 130 117 106 101 94 94 93 84 73
309 306 308 306 301 321 330 315 294 281 260 264 263 258 263 285 290 297 293 266 219 192 151 123 128 128 120 105 103 106 110 118 115 119 122 118 110 104 96 86 93 90 97
316 317 314 313 317 320 339 343 339 324 319 315 305 290 287 277 295 300 300 299 302 276 92 119 128 130 131 125 125 115 106 114 121 123 122 123 121 117 106 92 95 104 108
300 306 307 312 320 329 334 355 348 352 357 357 357 356 347 331 330 345 352 15 34 55 80 94 98 102 107 114 118 121 118 117 119 120 121 122 122 119 116 112 107 107 106
303 300 306 301 307 323 331 331 333 335 338 344 352 0 2 2 9 17 35 64 60 60 87 98 97 96 101 108 113 114 115 114 112 115 118 119 122 120 118 118 121 123 118
312 314 317 321 330 343 353 359 356 343 337 336 348 355 359 19 30 32 39 66 88 82 84 90 96 102 101 100 103 108 113 117 117 116 116 118 120 120 120 123 122 118 113
312 315 325 334 349 355 1 10 4 354 355 4 358 350 357 22 42 30 37 51 75 82 84 89 92 94 95 98 101 109 112 115 119 116 117 116 116 121 125 127 128 123 114
322 327 339 354 6 10 18 15 11 7 5 1 352 349 357 35 51 39 34 37 52 80 85 84 85 89 93 97 104 113 115 114 113 114 116 117 120 119 120 122 122 120 118
347 355 5 14 18 20 17 22 21 23 16 4 354 359 7 31 41 34 29 31 39 72 93 98 93 90 98 108 116 119 119 120 120 119 119 120 120 121 121 120 121 119 119
17 18 20 26 28 5 5 24 36 34 19 7 2 12 19 28 33 32 33 34 62 71 80 96 100 92 84 83 95 121 130 135 136 137 129 122 120 120 121 121 123 125 123
24 27 26 29 26 33 36 32 31 29 21 15 13 17 18 25 34 31 30 39 61 64 70 80 92 97 91 82 87 99 113 121 122 124 127 129 123 119 119 119 120 124 123
25 28 29 36 36 44 41 36 33 29 22 16 15 16 21 26 34 32 32 52 63 66 66 73 84 88 95 101 109 115 119 116 116 117 119 120 120 118 120 119 120 118 118
22 26 30 41 45 45 45 40 29 22 17 10 11 16 21 26 28 31 49 65 73 72 69 72 81 88 93 101 114 120 119 118 118 117 117 119 120 120 119 116 115 115 117
Height
1405 1403 1401 1399 1397 1395 1393 1391 1391 1390 1390 1389 1389 1389 1389 1389 1390 1390 1391 1392 1393 1394 1395 1397 1398 1401 1402 1404 1405 1407 1408 1409 1407 1406 1408 1409 1409 1410 1411 1412 1412 1412 1413
1401 1399 1396 1394 1391 1389 1387 1386 1385 1384 1383 1383 1382 1383 1383 1382 1383 1383 1384 1385 1386 1387 1388 1390 1391 1394 1395 1397 1398 1399 1400 1402 1402 1401 1401 1403 1403 1404 1404 1405 1406 1406 1407
1397 1394 1392 1389 1386 1384 1382 1380 1379 1379 1378 1377 1377 1377 1376 1376 1376 1376 1377 1378 1379 1380 1381 1383 1384 1386 1388 1389 1391 1392 1394 1395 1396 1397 1395 1397 1397 1398 1399 1399 1400 1401 1402
1393 1390 1387 1385 1382 1379 1377 1375 1374 1373 1373 1372 1371 1371 1371 1370 1371 1371 1371 1372 1373 1374 1375 1376 1377 1380 1381 1382 1384 1385 1387 1389 1390 1391 1391 1391 1392 1393 1394 1394 1394 1396 1397
1389 1386 1383 1380 1378 1375 1373 1371 1370 1369 1368 1367 1366 1365 1365 1365 1365 1365 1365 1366 1367 1368 1368 1369 1371 1373 1374 1376 1378 1379 1381 1383 1384 1384 1385 1385 1386 1387 1388 1389 1390 1391 1393
1385 1382 1379 1376 1373 1371 1369 1367 1366 1365 1364 1363 1362 1361 1360 1360 1360 1360 1360 1361 1361 1362 1362 1363 1365 1367 1369 1370 1372 1374 1375 1376 1377 1378 1378 1379 1380 1382 1384 1385 1386 1387 1388
1381 1378 1375 1372 1369 1367 1365 1363 1361 1360 1359 1358 1357 1356 1355 1355 1355 1355 1355 1356 1356 1357 1358 1359 1360 1362 1363 1365 1366 1368 1369 1370 1372 1373 1373 1374 1376 1378 1379 1381 1382 1383 1384
1378 1375 1372 1369 1366 1364 1361 1359 1357 1356 1355 1353 1352 1352 1352 1351 1351 1351 1351 1352 1352 1353 1354 1355 1356 1357 1359 1360 1361 1362 1363 1365 1366 1367 1368 1370 1372 1374 1376 1377 1378 1380 1381
1375 1371 1368 1366 1362 1360 1357 1355 1353 1351 1350 1349 1348 1348 1348 1348 1348 1348 1348 1349 1349 1349 1351 1352 1352 1353 1354 1356 1357 1358 1358 1360 1361 1363 1364 1366 1368 1371 1372 1374 1375 1376 1377
1371 1368 1365 1363 1359 1356 1354 1351 1350 1348 1347 1346 1345 1345 1345 1345 1345 1345 1345 1346 1346 1346 1347 1348 1349 1350 1351 1352 1353 1354 1355 1356 1357 1359 1361 1363 1365 1367 1369 1370 1371 1373 1374
1368 1365 1362 1359 1357 1354 1351 1349 1347 1345 1344 1343 1343 1342 1342 1342 1342 1342 1342 1342 1343 1343 1344 1345 1346 1347 1348 1349 1350 1351 1351 1353 1355 1356 1358 1360 1362 1364 1366 1368 1369 1370 1371
1365 1362 1359 1356 1354 1352 1349 1347 1345 1343 1342 1341 1340 1339 1339 1339 1340 1339 1340 1340 1341 1341 1341 1342 1343 1344 1345 1346 1346 1348 1349 1351 1352 1354 1356 1358 1359 1361 1363 1365 1366 1368 1369
1361 1358 1356 1353 1351 1349 1347 1345 1343 1341 1340 1339 1338 1337 1337 1337 1337 1337 1337 1338 1338 1338 1339 1340 1341 1341 1342 1343 1344 1345 1347 1348 1349 1351 1354 1356 1358 1360 1361 1363 1364 1366 1367
1357 1355 1352 1350 1348 1346 1345 1343 1341 1339 1338 1337 1337 1336 1336 1335 1335 1335 1335 1335 1336 1336 1337 1337 1338 1339 1340 1341 1342 1343 1345 1346 1348 1350 1352 1354 1356 1358 1360 1361 1362 1364 1365
1355 1353 1350 1348 1346 1345 1343 1342 1340 1339 1338 1337 1336 1336 1334 1333 1334 1334 1334 1334 1334 1334 1335 1335 1336 1337 1338 1338 1340 1341 1343 1345 1346 1348 1350 1353 1355 1357 1359 1360 1361 1362 1363
1353 1351 1349 1347 1345 1343 1342 1340 1339 1338 1337 1336 1335 1335 1334 1333 1333 1332 1333 1333 1333 1334 1334 1334 1334 1335 1336 1337 1339 1340 1342 1344 1346 1347 1349 1351 1354 1355 1357 1359 1360 1361 1362
1351 1349 1347 1345 1344 1342 1340 1339 1337 1337 1336 1335 1334 1333 1332 1332 1331 1331 1332 1332 1333 1333 1333 1333 1333 1334 1336 1337 1338 1340 1341 1343 1345 1347 1349 1351 1353 1355 1356 1358 1359 1360 1361
1349 1348 1346 1344 1342 1341 1340 1338 1337 1335 1334 1333 1333 1332 1331 1330 1330 1330 1331 1332 1332 1333 1333 1333 1333 1334 1335 1336 1338 1339 1341 1343 1345 1347 1349 1351 1353 1354 1356 1357 1359 1360 1361
1347 1346 1344 1343 1341 1340 1339 1337 1336 1335 1334 1332 1331 1331 1331 1330 1330 1331 1331 1331 1332 1332 1333 1333 1334 1335 1336 1336 1338 1339 1341 1343 1345 1347 1349 1350 1352 1354 1355 1357 1358 1360 1361
1345 1344 1342 1341 1339 1338 1337 1336 1335 1334 1333 1332 1331 1331 1331 1331 1330 1331 1331 1332 1332 1333 1333 1334 1334 1335 1336 1337 1338 1339 1341 1343 1345 1347 1348 1350 1352 1353 1355 1356 1358 1359 1361
1342 1341 1340 1339 1338 1337 1336 1335 1334 1334 1333 1332 1332 1332 1332 1331 1331 1331 1332 1332 1333 1333 1334 1334 1335 1335 1337 1337 1339 1340 1342 1343 1345 1347 1348 1350 1351 1353 1354 1356 1358 1360 1361
1340 1339 1338 1337 1337 1336 1336 1335 1334 1333 1333 1332 1332 1332 1332 1332 1332 1332 1332 1333 1333 1334 1334 1335 1335 1336 1337 1338 1339 1341 1342 1344 1346 1347 1349 1350 1351 1353 1354 1356 1358 1360 1362
1339 1337 1336 1336 1335 1335 1335 1334 1334 1333 1333 1332 1332 1332 1332 1332 1332 1332 1332 1333 1333 1334 1335 1335 1336 1337 1338 1339 1341 1342 1343 1345 1347 1348 1349 1350 1352 1353 1355 1357 1359 1361 1363
1337 1336 1335 1335 1334 1334 1334 1334 1333 1333 1333 1332 1332 1332 1332 1332 1332 1333 1333 1333 1334 1334 1335 1336 1337 1338 1339 1340 1342 1343 1345 1346 1348 1349 1350 1351 1353 1354 1356 1358 1360 1362 1364
1336 1335 1335 1334 1334 1334 1334 1334 1333 1333 1333 1333 1333 1332 1332 1332 1333 1333 1334 1334 1335 1335 1336 1337 1338 1339 1340 1342 1343 1344 1346 1347 1348 1350 1351 1353 1354 1356 1358 1360 1361 1363 1365
1336 1335 1335 1335 1334 1334 1334 1334 1333 1333 1333 1333 1333 1333 1332 1333 1333 1334 1334 1335 1336 1337 1337 1338 1340 1341 1342 1343 1344 1345 1347 1348 1350 1351 1353 1354 1356 1357 1359 1361 1363 1365 1367